Regional Weather Roundup
Issued by NWS Lake Charles, LA

Home | Current Version | Previous Version | Text Only | Print | Product List | Glossary On
Versions: 1 2 3 4 5 6 7 8 9 10 11 12 13 14 15 16 17 18 19 20 21 22 23 24 25 26 27 28 29 30 31 32 33 34 35 36 37 38 39 40 41 42 43 44 45 46 47 48 49
000
ASUS44 KLCH 021910
RWRLCH
RWRLCH
REGIONAL WEATHER ROUNDUP
NATIONAL WEATHER SERVICE LAKE CHARLES LA
200 PM CDT WED SEP 02 2015

Note: "fair" indicates few or no clouds below 12,000 feet with no
significant weather and/or obstructions to visibility.


ACROSS SOUTHEAST TEXAS

CITY           SKY/WX    TMP DP  RH WIND       PRES   REMARKS
BEAUMONT       MOSUNNY   87  72  60 SE15      30.02F
BEAUMONT CITY    N/A     89  69  52 E13       30.02F
ORANGE         PTCLDY    87  67  50 CALM      30.04F
JASPER         SUNNY     92  65  41 E5        30.05F
$$

ACROSS CENTRAL LOUISIANA

CITY           SKY/WX    TMP DP  RH WIND       PRES   REMARKS
LEESVILLE      PTSUNNY   88  73  60 VRB6      30.03F
FULLERTON      MOCLDY    89  70  53 VRB6      30.02F
ALEXANDRIA INT HVY RAIN  78  69  73 SE12G32   30.04S
ESLER FIELD    CLOUDY    92  65  40 S5        30.04F
DERIDDER       MOCLDY    90  66  45 E6        30.06F
OAKDALE          N/A     91  68  48 E6        30.03F
OPELOUSAS      CLOUDY    88  69  53 E9        30.04S
$$

ACROSS SOUTHWEST AND SOUTH CENTRAL LOUISIANA

CITY           SKY/WX    TMP DP  RH WIND       PRES   REMARKS
SULPHUR        MOCLDY    91  72  53 E7        30.04F
LAKE CHARLES   PTSUNNY   88  71  57 SE14      30.03F
CHENNAULT INT  NOT AVBL
CAMERON PHI    CLOUDY    79  73  83 SE21G29   30.08R
DEQUINCY         N/A     89  64  42 E6        30.03F
JENNINGS       MOCLDY    86  69  56 E7        30.04S
LAFAYETTE      PTSUNNY   85  74  69 VRB5      30.06S
NEW IBERIA     LGT RAIN  83  75  77 SE12      30.06S
ABBEVILLE      LGT RAIN  80  76  87 SE8       30.06F
PATTERSON      CLOUDY    75  73  94 E6        30.09S
SALT POINT       N/A     78  76  93 SE6       30.06F
$$

SELECTED SITES ACROSS THE REGION

CITY           SKY/WX    TMP DP  RH WIND       PRES   REMARKS
HOUSTON BUSH   MOSUNNY   88  71  57 SE10G20   30.01F
HOUSTON HOBBY  MOSUNNY   86  71  60 E9        30.01F
GALVESTON      PTSUNNY   83  75  77 E14       30.02F
COLLEGE STAT   MOSUNNY   89  68  49 SE7       30.01F
CONROE         PTSUNNY   88  65  46 VRB6      30.02F
HUNTSVILLE     SUNNY     90  63  40 VRB6      30.02F
LUFKIN         MOSUNNY   90  61  37 SE7G17    30.02F
SHREVEPORT     PTSUNNY   91  69  48 N5        30.03F
MONROE         MOSUNNY   92  68  45 VRB3      30.03F
NATCHEZ MS     PTSUNNY   90  68  48 CALM      30.06F
BATON ROUGE    CLOUDY    87  73  62 E9        30.05F
N.O. INTL ARPT LGT RAIN  78  73  84 S9        30.08F
SLIDELL        CLOUDY    85  75  72 S8        30.06F
$$

MARINE REPORTS

STATION/POSITION TIME  TEMP    WIND        PRES    VSBY  WAVE
                       AIR SEA DIR/SP/G                  HT/PER
                 (UTC) (F)     (DEG/KT/KT) (MB)    (MI)  (FT/S)
BUOY 30 S HIGH I 1850   81 85   90/ 16/ 17 1016.6F         3/ 6
SEA RIM ST PARK  1900   83     110/ 15/ 16 1017.2F
PORT ARTHUR      1800      85  100/  6/  9 1017.3F
SABINE PASS N    1800   83 84   80/ 10/ 13 1017.4F
TEXAS POINT      NOT AVBL
CALCASIEU PASS   1800   85 84  130/  9/ 12 1016.5F
LK CHARLES BEACH 1800   89 85                N/A
MARSH ISLAND     1800   76     140/ 16/ 18   N/A           0
FRESH WATER LOCK 1800   76 83  120/ 14/ 18 1018.4R
AMERADA PASS     1800   77 83  120/  4/  7 1018.8R
$$


USA.gov is the U.S. government's official web portal to all federal, state and local government web resources and services.